[[{"header":{"parameterUnit":"m.s-1","parameterCategory":1,"la1":30.2991,"la2":30.254,"lo1":-89.0895,"lo2":-89.0444,"dy":0.0017,"dx":0.0017,"nx":28,"ny":28,"refTime":"2024-06-21T21:00:00:Z","depth":0,"parameterNumber":2,"parameterNumberName":"U-component_of_WINDS"},"data":[0,0,0,0,0,0,0,0,0,0,0,0,0,0,0,0,0,0,0,0,0,0,0,0,0,0,0,0,0,0,0,0,0,0,0,0,0,0,0,0,0,0,0,0,0,0,0,0,0,0,0,0,0,0,0,0,0,0,1.4294,1.4295,0,1.4451,1.4452,1.4454,1.4513,1.4513,1.4512,1.4512,1.4674,1.4678,1.4683,0,0,0,0,0,0,0,0,0,0,0,0,0,1.4044,1.4049,1.4293,1.4295,1.4297,1.445,1.4452,1.4455,1.4513,1.4513,1.4512,1.4512,1.4672,1.4678,1.4683,0,0,0,0,0,0,0,0,0,0,0,0,0,1.4172,1.405,1.4293,1.4345,1.4351,1.445,1.4452,1.4455,1.4514,1.4513,1.4512,1.4511,1.467,1.4677,1.4684,1.4743,0,0,1.4706,1.4709,0,0,0,0,0,0,0,0,1.4165,1.4181,1.4335,1.4342,1.4349,1.4462,1.4424,1.4552,1.4514,1.4452,1.4512,1.4511,1.4604,1.4616,1.4647,1.475,1.4757,1.4706,1.4711,1.4714,1.4716,0,0,0,0,0,0,0,1.4156,1.4175,1.4356,1.4338,1.4346,1.4361,1.4378,1.4448,1.453,1.4457,1.4462,1.448,1.4607,1.464,1.4651,1.4759,1.4706,1.4713,1.4717,1.472,1.4917,1.4918,0,0,0,0,0,0,1.4138,1.4167,1.4351,1.436,1.4253,1.4366,1.4385,1.4426,1.4529,1.4544,1.448,1.4482,1.4628,1.4643,1.4657,1.4732,1.4714,1.472,1.4725,1.4916,1.4917,1.4919,0,0,0,0,0,0,1.4133,1.4154,1.4344,1.4265,1.429,1.4371,1.4416,1.443,1.4463,1.4547,1.4561,1.4499,1.4628,1.4647,1.4721,1.4739,1.4724,1.473,1.4915,1.4917,1.4918,1.4882,0,0,0,0,0,0,1.4125,1.4152,1.4175,1.4265,1.4294,1.4405,1.4418,1.4433,1.4475,1.4479,1.4568,1.4582,1.4629,1.471,1.4728,1.4748,1.4736,1.4914,1.4916,1.4918,1.4882,1.4882,1.4882,0,0,0,0,0,1.4116,1.4159,1.4176,1.4198,1.4325,1.4406,1.4422,1.4475,1.4476,1.45,1.4553,1.458,1.4734,1.4717,1.4738,1.476,1.4913,1.4915,1.4917,1.4882,1.4882,1.4882,0,0,0,0,0,0,1.4069,1.4172,1.4191,1.4264,1.4326,1.4415,1.4447,1.4474,1.4537,1.4537,1.4601,1.462,1.4688,1.4732,1.4711,1.4822,1.4825,1.4831,1.4791,1.4792,1.4792,1.478,1.4742,0,0,0,0,0,1.4067,1.4124,1.4211,1.4267,1.4296,1.4366,1.4403,1.4439,1.4505,1.4531,1.4591,1.4654,1.4717,1.4757,1.4819,1.4888,1.4909,1.4914,1.4914,1.4914,1.4919,1.4958,1.4961,1.4926,1.4926,1.4926,0,0,1.4063,1.4126,1.4159,1.4259,1.431,1.4368,1.4388,1.4448,1.4491,1.4541,1.4613,1.4659,1.4734,1.4805,1.4839,1.4843,1.4933,1.4917,1.4916,1.4921,1.496,1.4964,1.4967,1.4927,1.4927,1.4927,0,0,1.4086,1.414,1.4192,1.4244,1.4321,1.4368,1.438,1.4466,1.4498,1.4571,1.4609,1.4662,1.4769,1.482,1.486,1.4902,1.4928,1.492,1.4921,1.4958,1.4961,1.4964,1.4978,1.4982,1.4925,1.4925,1.4925,0,1.4072,1.416,1.4216,1.4274,1.4316,1.4363,1.4416,1.4464,1.4558,1.4586,1.4589,1.4723,1.4777,1.4861,1.4871,1.4902,1.4918,1.491,1.4956,1.4959,1.4963,1.4977,1.4982,1.4923,1.4923,1.4924,1.4924,0,1.4139,1.4199,1.4232,1.4321,1.4368,1.4423,1.4487,1.4527,1.4558,1.4603,1.4677,1.4744,1.482,1.4842,1.4874,1.493,1.493,1.4944,1.4948,1.4964,1.4978,1.4984,1.4921,1.4922,1.4922,1.4922,0,0,1.4137,1.4255,1.4266,1.4307,1.4396,1.4444,1.4501,1.4575,1.4608,1.4672,1.4721,1.4809,1.4822,1.4868,1.4905,1.4938,1.4966,1.4948,1.4951,1.4948,1.5031,1.502,1.5026,1.4983,1.4985,1.4986,1.5025,0,1.4171,1.4275,1.4326,1.4408,1.4464,1.4509,1.4559,1.4619,1.4663,1.4717,1.4766,1.4827,1.484,1.4867,1.4902,1.4955,1.4983,1.4953,1.503,1.5032,1.5009,1.5034,1.5022,1.5056,1.5031,1.5032,1.5033,0,1.4225,1.4287,1.4375,1.4457,1.4482,1.4526,1.4597,1.4649,1.4717,1.4747,1.4797,1.4833,1.4895,1.4894,1.498,1.4958,1.4992,1.5023,1.5026,1.5035,1.5033,1.5043,1.5068,1.5073,1.5042,1.5042,1.5041,0,1.4214,1.432,1.4386,1.4419,1.4517,1.4546,1.4588,1.4656,1.4697,1.4759,1.4787,1.4855,1.4893,1.4945,1.4999,1.4994,1.5079,1.5084,1.5105,1.5104,1.5121,1.5119,1.5152,1.5143,1.5143,1.5143,1.5143,0,1.4247,1.4298,1.4382,1.4422,1.4481,1.4539,1.4596,1.4641,1.4701,1.4751,1.4794,1.484,1.4908,1.4962,1.5004,1.5068,1.5085,1.5111,1.5121,1.5107,1.5103,1.513,1.5129,1.5145,1.5144,1.5144,1.5144,0,1.4244,1.4302,1.4377,1.4463,1.4485,1.4525,1.4598,1.4639,1.4685,1.4747,1.4765,1.4837,1.4903,1.4962,1.5049,1.5078,1.5143,1.5156,1.5119,1.5125,1.5143,1.514,1.5194,1.5204,1.5188,1.5188,1.5188,0,1.4261,1.4302,1.4391,1.4428,1.4469,1.4527,1.4569,1.4628,1.4669,1.475,1.4781,1.485,1.4908,1.5011,1.5071,1.5138,1.5154,1.5168,1.5164,1.5148,1.5153,1.515,1.5154,1.5167,1.5167,1.5167,1.5167,0,1.4285,1.4311,1.437,1.4439,1.4488,1.4545,1.4603,1.463,1.47,1.4744,1.4812,1.4857,1.4946,1.5014,1.5087,1.5131,1.516,1.5167,1.5176,1.5161,1.5138,1.5151,1.5118,1.5166,1.5166,1.5166,1.5166,1.5166,1.4292,1.433,1.4399,1.4463,1.4513,1.4566,1.4609,1.466,1.4717,1.4794,1.4825,1.4894,1.4961,1.5062,1.5105,1.516,1.5165,1.5177,1.5181,1.5183,1.518,1.5129,1.5173,1.5173,1.5174,1.5174,1.5174,0,1.4318,1.4364,1.4423,1.4503,1.4553,1.4576,1.4641,1.4682,1.4742,1.4802,1.4858,1.4935,1.5001,1.5066,1.5135,1.5166,1.5181,1.5182,1.518,1.519,1.5171,1.5157,1.5169,1.5169,1.5169,1.5169,1.5169,1.5169,1.4337,1.4402,1.4437,1.4527,1.4573,1.4641,1.4676,1.4725,1.4774,1.4858,1.4913,1.4954,1.5016,1.509,1.5151,1.5169,1.5192,1.5189,1.521,1.5191,1.5191,1.5191,1.5178,1.5194,1.5194,1.5224,1.5224,1.5224]},{"header":{"parameterUnit":"m.s-1","parameterCategory":1,"la1":30.2991,"la2":30.254,"lo1":-89.0895,"lo2":-89.0444,"dy":0.0017,"dx":0.0017,"nx":28,"ny":28,"refTime":"2024-06-21T21:00:00:Z","depth":0,"parameterNumber":3,"parameterNumberName":"V-component_of_WINDS"},"data":[0,0,0,0,0,0,0,0,0,0,0,0,0,0,0,0,0,0,0,0,0,0,0,0,0,0,0,0,0,0,0,0,0,0,0,0,0,0,0,0,0,0,0,0,0,0,0,0,0,0,0,0,0,0,0,0,0,0,4.5852,4.5852,0,4.5842,4.5842,4.5842,4.5836,4.5836,4.5836,4.5836,4.5825,4.5824,4.5824,0,0,0,0,0,0,0,0,0,0,0,0,0,4.5864,4.5863,4.5852,4.5852,4.5851,4.5842,4.5842,4.5842,4.5836,4.5836,4.5836,4.5836,4.5825,4.5824,4.5824,0,0,0,0,0,0,0,0,0,0,0,0,0,4.5857,4.5863,4.5852,4.5847,4.5847,4.5842,4.5842,4.5842,4.5836,4.5836,4.5836,4.5836,4.5825,4.5824,4.5824,4.5822,0,0,4.5823,4.5822,0,0,0,0,0,0,0,0,4.5857,4.5856,4.5848,4.5848,4.5847,4.584,4.5842,4.5835,4.5836,4.584,4.5836,4.5836,4.583,4.5829,4.5827,4.5822,4.5821,4.5823,4.5822,4.5822,4.5822,0,0,0,0,0,0,0,4.5857,4.5857,4.5848,4.5848,4.5847,4.5846,4.5844,4.5841,4.5835,4.584,4.5839,4.5838,4.5829,4.5828,4.5827,4.5821,4.5823,4.5822,4.5822,4.5822,4.5814,4.5814,0,0,0,0,0,0,4.5859,4.5857,4.5848,4.5848,4.5852,4.5845,4.5844,4.5842,4.5835,4.5834,4.5838,4.5838,4.5828,4.5827,4.5826,4.5824,4.5822,4.5822,4.5822,4.5814,4.5814,4.5814,0,0,0,0,0,0,4.5859,4.5858,4.5849,4.5852,4.5851,4.5845,4.5843,4.5842,4.584,4.5834,4.5833,4.5838,4.5828,4.5827,4.5823,4.5824,4.5822,4.5821,4.5814,4.5814,4.5814,4.582,0,0,0,0,0,0,4.5859,4.5858,4.5858,4.5852,4.5851,4.5846,4.5843,4.5842,4.584,4.5839,4.5833,4.5832,4.5828,4.5824,4.5823,4.5823,4.5821,4.5814,4.5814,4.5814,4.5819,4.582,4.582,0,0,0,0,0,4.586,4.5859,4.5858,4.5857,4.585,4.5846,4.5845,4.5841,4.584,4.5839,4.5835,4.5832,4.5824,4.5824,4.5823,4.5822,4.5814,4.5814,4.5814,4.5819,4.582,4.582,0,0,0,0,0,0,4.5865,4.5859,4.5857,4.5855,4.5851,4.5845,4.5844,4.5842,4.5838,4.5838,4.5832,4.5831,4.5828,4.5825,4.5825,4.5821,4.5818,4.5818,4.5823,4.5823,4.5824,4.5824,4.5821,0,0,0,0,0,4.5866,4.5863,4.5858,4.5857,4.5855,4.585,4.5848,4.5845,4.5841,4.584,4.5835,4.5831,4.5827,4.5825,4.5821,4.5819,4.5817,4.5818,4.5819,4.5819,4.5819,4.5817,4.5817,4.5814,4.5814,4.5814,0,0,4.5867,4.5864,4.5862,4.5857,4.5854,4.5852,4.5849,4.5846,4.5844,4.5839,4.5836,4.5832,4.5827,4.5824,4.5823,4.5822,4.5819,4.5819,4.5819,4.5819,4.5817,4.5818,4.5818,4.5814,4.5814,4.5814,0,0,4.5869,4.5866,4.5865,4.5862,4.5857,4.5854,4.5854,4.5848,4.5846,4.5843,4.5839,4.5836,4.583,4.5827,4.5824,4.5825,4.5822,4.5824,4.5826,4.5825,4.5825,4.5825,4.5825,4.5825,4.5824,4.5824,4.5824,0,4.5871,4.5868,4.5864,4.5862,4.586,4.5855,4.5854,4.5851,4.5845,4.5844,4.5843,4.5835,4.5831,4.5828,4.5828,4.5826,4.5825,4.5825,4.5825,4.5825,4.5825,4.5826,4.5826,4.5824,4.5824,4.5824,4.5824,0,4.5871,4.5869,4.5868,4.5863,4.5861,4.5859,4.5855,4.5853,4.585,4.5847,4.5843,4.5839,4.5834,4.5833,4.583,4.5829,4.5828,4.5826,4.5824,4.5826,4.5826,4.5826,4.5825,4.5824,4.5824,4.5824,0,0,4.5875,4.5869,4.5869,4.5867,4.5861,4.5859,4.5857,4.5853,4.5852,4.5848,4.5846,4.5841,4.5839,4.5836,4.5833,4.5832,4.5832,4.583,4.5829,4.583,4.5831,4.5832,4.5832,4.5831,4.5831,4.583,4.5831,0,4.5876,4.5873,4.5869,4.5866,4.5864,4.586,4.5858,4.5855,4.5852,4.5849,4.5845,4.5842,4.584,4.5838,4.5837,4.5833,4.5832,4.5833,4.5828,4.5828,4.583,4.5832,4.5834,4.5835,4.5831,4.5831,4.5831,0,4.5877,4.5874,4.5871,4.5867,4.5865,4.5864,4.586,4.5858,4.5853,4.5851,4.5848,4.5845,4.5842,4.584,4.5836,4.5836,4.5834,4.5832,4.5832,4.5831,4.583,4.5832,4.5835,4.5835,4.5831,4.5831,4.5831,0,4.588,4.5875,4.5873,4.5872,4.5866,4.5865,4.5863,4.5859,4.5856,4.5853,4.5851,4.5847,4.5845,4.5842,4.5838,4.5837,4.5834,4.5832,4.5832,4.5832,4.5831,4.5831,4.5834,4.583,4.583,4.583,4.583,0,4.5882,4.588,4.5875,4.5873,4.5872,4.5868,4.5866,4.5863,4.5859,4.5857,4.5853,4.5851,4.5846,4.5843,4.5839,4.5836,4.5835,4.5833,4.5832,4.5833,4.5834,4.5832,4.5832,4.583,4.583,4.583,4.583,0,4.5885,4.5881,4.5879,4.5874,4.5873,4.5872,4.5867,4.5866,4.5863,4.586,4.5859,4.5854,4.585,4.5846,4.5841,4.5838,4.5836,4.5834,4.5837,4.5837,4.5837,4.5837,4.5839,4.5839,4.5835,4.5835,4.5835,0,4.5886,4.5885,4.588,4.5879,4.5877,4.5874,4.5872,4.5868,4.5866,4.5861,4.586,4.5856,4.5853,4.5848,4.5843,4.5839,4.5838,4.5839,4.5837,4.5838,4.5838,4.5838,4.5838,4.5839,4.5839,4.5839,4.5839,0,4.5888,4.5887,4.5884,4.5881,4.5879,4.5876,4.5873,4.5872,4.5867,4.5865,4.5862,4.586,4.5855,4.5851,4.5846,4.5843,4.584,4.584,4.5839,4.5841,4.5842,4.5842,4.5838,4.584,4.584,4.5839,4.5839,4.5839,4.5891,4.589,4.5886,4.5883,4.5881,4.5878,4.5877,4.5874,4.5871,4.5867,4.5864,4.5861,4.5857,4.5851,4.5848,4.5845,4.5844,4.5843,4.5843,4.5843,4.5844,4.5843,4.5844,4.5844,4.5844,4.5844,4.5844,0,4.5893,4.5891,4.5888,4.5884,4.5882,4.588,4.5877,4.5875,4.5872,4.5869,4.5866,4.5862,4.5859,4.5854,4.585,4.5849,4.5847,4.5848,4.5848,4.5847,4.5845,4.5846,4.5849,4.5849,4.5849,4.5849,4.5849,4.5849,4.5894,4.5892,4.589,4.5886,4.5884,4.5881,4.5879,4.5877,4.5874,4.587,4.5867,4.5865,4.5861,4.5857,4.5853,4.5852,4.585,4.5851,4.585,4.5848,4.5847,4.5847,4.5847,4.5851,4.5851,4.5852,4.5852,4.5852]}]]